RH
13 11 12 11 11 11 10 11 13 12 15 17 18 23 25 20 19 22 19 15 20 26 31 36 35 38 49 52 53 57 52 41 40 44 45 41 36 35 38 43 41 40 41 38 34 34 37 38 36 36 41 42 48 66 77 71 65 55 38 35 48 44 32 33 28 22 33 39 35 37 37 33 34 37 39 42 47 54 54 53 54 52 47 44 38 35 44
13 12 12 11 11 11 11 11 12 13 13 14 22 27 24 22 23 22 20 17 21 28 31 35 40 43 45 45 48 54 51 45 46 45 43 42 37 33 39 44 41 40 41 38 36 39 41 40 39 38 36 44 60 70 71 67 53 46 48 52 53 42 28 27 25 19 27 34 34 36 35 34 35 37 43 49 56 65 65 59 57 54 47 41 38 36 39
13 13 12 11 11 11 10 11 12 14 14 12 22 31 27 25 23 19 19 21 26 34 35 33 37 39 39 40 41 44 46 53 58 50 44 45 41 36 40 43 41 40 39 37 36 37 37 38 42 41 34 41 58 64 67 65 50 53 77 82 64 43 27 24 23 19 21 26 31 37 38 35 34 40 50 55 61 70 66 52 46 44 40 36 40 41 34
13 13 13 11 12 10 10 12 13 14 16 12 18 31 29 22 21 21 22 22 26 33 34 30 30 33 34 35 37 36 37 47 58 54 46 45 43 39 40 42 41 39 36 36 36 36 38 40 44 49 45 40 44 55 63 58 50 68 91 86 65 44 29 29 30 25 25 30 34 39 40 37 38 50 59 57 59 67 62 47 37 37 43 42 37 35 31
13 13 14 12 12 11 11 12 13 15 16 12 17 31 31 23 24 28 28 26 26 29 31 31 31 31 31 33 38 38 36 38 44 47 45 42 42 40 39 42 42 42 41 37 35 39 39 41 51 60 57 45 39 49 58 50 56 81 81 63 55 42 31 43 50 40 33 33 34 37 39 38 40 53 62 56 55 63 61 49 40 39 46 41 26 25 34
14 14 14 13 13 13 11 12 14 15 14 14 21 31 31 26 29 33 34 33 29 28 34 39 39 37 34 35 39 38 37 39 40 42 42 39 40 37 37 43 44 46 50 41 36 41 39 45 62 64 57 53 41 40 49 44 46 59 51 42 49 41 33 56 69 51 34 33 36 37 38 39 42 50 54 51 54 63 65 59 49 45 46 38 27 30 36
15 15 14 14 13 13 13 11 14 16 13 16 25 30 28 28 30 32 36 36 32 33 40 41 39 38 33 34 41 39 38 44 48 48 43 38 37 37 38 46 45 45 48 42 40 46 42 48 66 66 63 64 48 35 40 37 29 32 34 43 54 44 40 61 72 56 37 32 36 38 37 40 47 50 47 45 48 55 62 59 48 45 46 38 32 36 36
14 14 13 14 13 13 13 11 13 16 13 17 29 36 34 31 29 29 31 33 32 33 35 34 32 32 30 33 43 43 40 44 49 53 52 43 39 40 43 47 48 45 43 43 49 55 49 47 58 65 67 61 46 37 35 33 31 30 35 50 54 43 43 60 63 49 36 34 38 39 36 37 44 47 43 43 44 46 55 56 47 47 49 40 38 45 42
14 14 13 14 13 13 14 12 12 14 14 20 32 38 38 36 32 29 28 30 33 31 28 28 28 28 30 37 43 44 43 46 48 53 60 57 52 52 49 45 45 45 46 51 56 56 54 52 53 57 56 45 37 34 31 34 38 34 41 58 55 38 36 45 45 32 24 30 33 30 31 40 50 51 43 40 43 44 48 48 44 46 49 48 51 52 43
13 14 13 13 13 13 13 13 12 13 13 20 29 34 37 35 29 29 30 30 32 31 27 27 28 32 41 48 50 49 48 49 49 49 53 59 60 60 60 53 42 41 49 59 64 62 60 56 48 42 38 30 26 27 28 33 35 34 44 56 58 55 43 31 31 27 19 20 19 19 32 46 50 47 40 38 42 42 40 36 34 34 38 45 50 43 33
14 14 14 14 14 13 13 13 13 13 12 15 25 36 42 38 29 29 30 29 34 36 32 29 31 38 50 54 51 50 49 49 50 45 45 56 60 58 61 56 41 42 57 64 64 64 57 45 35 30 28 26 26 27 31 31 27 30 37 40 52 66 49 26 27 30 23 19 16 21 34 38 36 37 39 41 43 41 39 36 32 30 30 33 36 32 30
15 15 15 14 13 13 13 13 12 13 13 13 18 27 32 33 32 30 27 30 38 37 36 44 52 54 56 54 51 51 52 56 60 53 47 55 62 60 61 56 45 50 62 58 50 49 44 36 34 35 35 37 37 36 36 33 26 23 26 29 38 44 32 24 30 30 24 22 24 28 34 36 37 40 40 42 43 40 41 39 34 33 33 31 33 34 33
15 15 15 14 14 13 13 13 11 12 14 13 15 21 22 25 33 34 27 31 41 41 44 58 68 65 56 52 53 55 57 58 58 54 51 54 60 65 69 68 65 63 57 48 45 46 39 34 35 38 39 41 43 47 47 41 32 25 22 25 28 26 23 23 26 26 24 25 29 32 33 35 41 44 42 44 42 38 43 45 35 29 32 35 36 37 35
16 16 15 14 15 14 13 14 13 12 14 14 14 19 20 21 34 39 31 32 45 53 53 53 55 59 57 53 51 51 52 52 46 47 55 57 59 68 76 79 80 74 60 50 48 45 40 39 38 36 36 36 38 46 49 42 37 32 26 21 19 19 21 21 23 28 27 26 28 27 25 29 38 43 42 41 38 36 44 53 44 30 31 38 38 37 38
16 16 16 15 14 15 14 14 14 14 16 15 13 18 19 19 29 38 35 34 40 48 54 53 52 55 55 54 53 46 43 43 42 45 54 57 61 68 73 76 77 71 61 54 48 42 40 43 39 27 23 26 28 32 33 32 35 35 28 21 17 17 17 18 24 29 27 27 31 31 29 30 34 39 40 39 39 37 41 56 55 38 33 39 38 40 42
16 16 16 15 15 16 15 15 15 15 16 15 14 17 19 19 25 33 37 36 35 44 62 74 75 67 55 54 60 51 38 36 38 39 41 48 58 64 66 71 70 62 56 50 43 40 38 37 36 27 21 25 30 31 26 22 26 32 30 24 21 20 20 21 24 26 26 29 31 33 33 28 27 38 43 40 40 40 45 59 59 42 36 38 39 42 43
17 16 15 15 16 16 15 16 15 15 16 16 14 16 20 21 23 29 37 42 46 58 73 81 81 69 49 43 51 50 43 40 39 37 35 40 50 56 60 65 63 59 58 49 38 36 35 31 31 28 26 29 32 32 28 20 20 26 27 24 26 26 24 24 23 23 28 33 32 28 26 25 29 39 42 37 37 43 53 61 54 42 38 38 38 42 43
17 16 15 15 15 15 15 15 15 15 16 16 14 15 19 20 19 25 35 41 45 58 74 84 84 73 63 60 60 56 54 50 40 34 34 36 41 48 53 56 55 55 57 49 38 34 32 30 31 28 26 31 33 30 27 23 22 25 22 21 29 35 31 27 26 26 29 37 37 28 23 29 36 38 36 37 42 48 53 51 43 38 37 34 36 41 41
17 16 16 16 14 14 14 13 14 14 15 17 16 16 19 19 17 23 35 40 42 52 72 89 90 83 83 83 72 62 67 67 52 37 31 32 39 48 52 52 51 48 44 39 38 35 30 30 34 33 29 31 32 29 27 25 23 24 26 26 30 36 35 31 30 29 26 30 35 30 26 32 37 35 35 40 44 43 40 35 32 33 33 33 36 38 38
17 16 16 16 15 15 13 13 13 12 12 14 14 16 22 21 15 20 31 42 51 57 69 85 88 83 83 82 72 65 66 62 49 35 29 35 46 49 43 42 44 42 36 35 36 35 31 31 33 33 30 28 29 28 28 28 23 23 33 38 36 34 32 26 25 27 26 29 34 34 31 32 34 34 37 41 39 32 29 31 31 30 31 34 37 37 38
17 16 17 16 16 16 14 14 14 12 12 12 9 14 25 25 19 21 24 32 47 53 58 74 84 83 83 85 86 85 79 70 63 51 39 40 48 46 36 33 37 39 35 34 34 33 33 34 35 34 31 28 28 29 29 30 30 31 39 43 42 39 31 22 23 27 27 28 28 24 23 27 29 28 27 27 27 26 29 34 33 31 32 35 36 38 39
17 17 17 16 16 17 16 16 15 12 13 13 8 14 27 28 24 20 17 29 54 62 60 71 81 80 78 79 83 89 89 88 90 82 62 46 42 43 39 35 38 42 37 31 33 33 33 33 34 33 31 28 28 31 31 27 31 41 44 38 35 35 28 22 25 28 25 23 20 15 15 19 23 25 23 22 23 27 32 34 34 34 36 35 37 40 40
16 16 17 16 15 15 15 16 17 15 15 14 11 14 24 27 24 18 17 37 65 72 71 78 80 74 74 75 75 78 82 87 94 95 85 65 45 37 39 42 45 48 43 37 37 34 32 33 32 29 30 29 26 30 34 31 31 39 41 31 25 25 24 24 28 29 25 22 18 17 17 16 18 22 25 26 28 29 31 33 35 36 36 35 38 40 39
15 16 16 15 14 14 14 14 16 17 17 16 14 15 19 21 21 21 27 41 54 59 63 67 63 60 65 71 72 73 79 88 91 89 89 85 62 38 37 51 55 51 47 48 46 36 32 36 37 33 32 32 28 26 29 31 29 30 31 28 25 25 25 26 28 29 30 25 17 15 18 18 18 20 23 26 29 30 31 33 35 36 37 38 39 39 38
13 13 13 13 13 13 14 14 15 16 17 17 17 16 18 19 19 23 31 37 38 40 45 47 50 56 62 67 73 76 77 81 85 85 88 96 88 67 60 68 68 59 54 51 43 35 33 35 37 35 33 33 31 25 23 24 24 24 26 26 26 28 29 28 26 26 27 23 15 13 16 17 17 20 22 24 27 29 31 32 35 37 39 39 40 40 41
13 13 12 12 12 12 13 13 14 15 16 16 17 16 18 20 20 21 28 32 32 32 37 43 49 56 61 65 70 72 70 72 82 88 85 85 88 89 86 79 69 59 53 45 37 36 36 34 33 30 28 32 34 31 28 26 24 24 26 25 27 32 32 26 24 25 26 22 17 17 20 19 18 20 23 25 27 30 33 34 36 38 39 39 40 40 42
15 14 13 13 13 13 14 14 14 15 15 15 15 16 17 19 20 19 24 31 32 30 32 40 47 51 59 65 63 61 64 69 76 86 87 81 84 93 92 76 58 46 40 38 38 37 34 32 33 32 32 39 43 41 41 39 34 35 34 29 29 34 30 24 27 32 30 23 18 18 22 22 19 20 25 28 30 32 36 38 38 38 38 38 39 41 42
18 17 17 16 16 15 16 16 16 17 17 17 17 16 16 17 18 17 19 25 31 32 33 39 44 46 53 59 57 55 60 63 66 77 85 83 84 93 92 74 54 42 38 40 41 38 34 34 37 37 39 44 43 43 46 47 46 45 37 28 26 27 22 21 25 25 21 15 13 17 23 22 20 23 29 31 32 35 38 40 39 39 38 38 39 42 43
18 17 17 17 17 17 18 18 18 20 20 21 21 21 21 20 19 18 18 19 24 33 37 38 39 40 44 50 53 53 55 58 59 65 74 77 79 85 83 67 50 42 41 42 41 37 34 36 37 38 41 42 38 38 41 43 43 39 29 23 25 23 17 17 18 15 13 13 15 20 24 22 22 28 32 33 35 37 39 39 38 38 39 40 42 45 45
13 12 13 14 15 16 17 17 19 21 20 22 24 24 24 23 21 21 21 19 19 27 33 34 34 35 37 45 52 52 54 60 62 62 68 71 68 66 62 53 46 44 42 40 39 37 36 39 42 44 44 43 41 40 38 38 38 31 19 17 23 22 19 18 17 14 15 17 21 25 27 25 26 31 34 36 37 39 40 40 39 40 42 43 45 46 46
10 10 11 11 11 13 14 15 17 18 18 22 27 26 23 24 23 22 21 20 19 23 28 31 33 34 34 42 50 50 53 64 68 64 64 63 56 54 57 53 49 48 44 38 39 42 40 42 48 51 50 52 52 46 40 41 43 34 21 18 21 21 21 21 20 18 19 21 26 30 30 29 30 33 35 35 37 40 42 42 42 44 47 48 49 49 50
10 10 11 10 10 11 12 12 14 14 14 18 23 23 22 24 23 21 20 20 20 23 27 29 32 32 33 40 45 44 48 59 60 53 54 55 50 51 56 54 48 49 48 43 43 45 42 42 49 55 55 56 55 49 44 46 46 36 24 18 18 19 20 20 20 21 23 25 31 34 31 28 30 33 35 36 37 40 43 43 43 47 51 54 54 54 55
11 10 12 12 13 14 13 12 13 13 12 15 17 18 19 21 19 18 19 19 19 23 27 29 31 31 31 33 37 39 43 48 45 38 41 48 47 45 47 47 43 45 49 45 41 42 42 41 46 51 49 46 46 49 50 47 40 30 23 19 19 21 22 23 25 27 27 28 31 32 30 29 32 36 39 40 42 43 45 46 47 49 52 55 57 57 58
12 13 15 17 18 18 17 16 15 13 13 15 16 16 16 16 17 18 18 17 19 24 29 30 30 28 27 28 33 38 39 39 37 33 35 44 47 42 40 41 39 40 43 40 35 38 43 43 44 48 48 45 48 54 52 41 29 24 23 22 22 24 27 30 30 30 30 31 31 31 32 34 38 42 42 43 44 45 46 49 51 53 55 57 57 57 59
13 15 18 20 20 19 20 20 18 16 17 20 21 20 18 16 17 17 17 18 20 22 27 30 29 26 26 28 30 35 39 39 36 33 35 41 44 40 38 41 43 41 40 38 37 40 44 44 44 47 48 51 58 60 51 35 25 24 24 23 24 28 31 31 29 28 30 32 33 35 36 40 43 45 44 44 45 46 48 51 53 56 60 60 57 57 59
15 18 20 20 19 19 20 21 20 20 22 23 22 21 20 19 19 17 16 19 21 20 24 30 28 25 28 30 28 32 39 40 36 35 37 40 41 41 41 42 43 45 48 47 46 45 43 42 45 46 46 50 55 50 37 28 25 24 22 21 23 27 27 25 25 29 33 37 39 40 42 45 48 49 49 48 47 47 50 53 54 57 63 64 61 59 59
17 19 19 19 20 21 21 21 21 23 24 23 22 22 20 19 20 18 17 19 21 23 26 29 27 27 30 30 29 34 41 40 36 35 37 40 42 43 43 41 42 50 55 51 46 46 44 44 49 50 47 44 40 31 25 25 25 23 21 20 22 24 24 25 29 33 38 43 46 46 47 50 52 52 52 52 50 49 52 54 55 58 64 66 64 63 63
18 18 18 19 22 24 24 22 22 24 24 23 22 22 21 20 20 21 22 23 23 26 29 29 29 34 37 34 33 39 42 40 37 35 37 43 47 44 40 40 42 45 45 39 38 43 47 50 55 57 52 44 35 28 27 28 25 23 23 23 24 25 25 27 33 38 40 41 39 39 44 50 51 50 51 51 48 49 51 54 55 59 63 66 66 67 69
18 19 20 21 23 24 23 22 22 24 25 23 20 20 23 24 22 23 26 28 26 27 30 31 32 36 37 34 35 42 45 42 39 36 36 42 46 41 36 37 39 40 38 36 36 38 40 44 49 53 50 44 35 28 26 27 26 26 26 26 27 29 30 30 33 36 36 33 31 32 38 44 46 47 48 47 47 49 52 55 59 61 63 66 69 73 77
19 22 24 24 23 21 21 22 23 23 24 25 23 22 26 28 27 27 28 28 27 28 33 37 41 45 44 37 35 42 47 44 40 41 41 41 42 42 40 38 38 39 38 36 38 40 39 38 41 44 42 34 26 22 25 29 30 29 30 31 33 34 35 35 35 35 35 35 38 42 45 48 51 52 49 47 50 54 56 58 62 63 65 68 72 77 81
20 23 23 23 22 19 19 21 20 19 23 26 25 24 26 28 32 35 33 27 25 32 42 45 43 44 48 46 41 42 48 50 48 49 48 44 46 52 50 40 35 35 34 34 38 42 41 39 42 43 37 25 19 21 28 31 31 32 35 38 39 39 39 39 39 39 40 43 45 47 51 56 60 60 56 55 58 61 63 66 67 67 70 74 75 77 79
21 22 21 21 20 18 19 21 20 18 23 26 23 24 28 29 29 31 29 25 27 33 39 42 40 39 44 50 46 44 51 58 55 49 47 47 49 51 47 38 34 34 35 36 39 41 41 43 45 41 31 23 20 23 26 27 28 31 35 40 42 43 42 42 42 42 45 49 51 51 54 58 62 62 61 63 66 67 69 73 75 75 75 76 77 77 78
22 21 20 21 22 20 21 25 25 23 25 27 23 21 23 27 28 28 26 29 37 39 35 39 46 49 49 50 47 47 60 70 63 50 47 47 43 39 37 37 37 36 34 36 40 42 43 46 44 34 23 19 20 23 25 25 27 31 35 40 44 45 44 45 47 47 50 55 58 59 60 63 63 61 60 62 66 69 70 71 73 74 75 76 78 79 78
22 23 24 26 28 25 20 21 23 21 19 22 22 19 18 24 29 28 25 26 34 39 37 37 40 41 41 45 49 53 62 68 62 51 45 41 36 33 35 35 34 34 34 35 37 39 41 42 39 30 22 20 21 22 23 23 27 31 35 39 44 48 48 49 51 54 57 60 61 62 64 65 64 63 63 62 65 69 71 70 72 74 75 77 80 79 78
24 31 33 28 26 24 19 18 23 21 17 20 26 26 22 21 21 23 29 34 34 37 42 43 38 35 39 46 51 52 52 52 50 46 41 37 35 35 35 32 32 34 35 35 37 41 42 40 34 27 22 20 19 18 17 19 23 30 35 39 43 48 50 50 53 57 61 62 62 64 67 67 67 68 67 62 61 65 69 72 76 78 79 80 81 79 79
24 35 35 23 20 23 21 18 21 22 21 27 31 28 24 24 23 30 46 52 42 38 46 48 41 38 40 42 45 48 47 45 43 41 38 36 36 34 33 32 33 33 33 37 42 45 42 34 25 20 18 18 16 16 18 21 26 33 39 39 39 43 48 52 56 59 62 62 63 65 68 68 68 70 69 65 63 65 67 69 73 78 81 84 84 81 79
25 33 30 21 22 27 24 22 27 28 25 30 35 36 42 47 43 46 60 62 48 43 53 53 44 42 44 43 42 45 45 43 43 41 38 37 36 31 29 32 34 34 36 42 46 43 36 27 20 17 16 17 17 19 22 27 33 41 43 40 37 41 46 51 57 60 61 61 63 67 69 68 66 67 69 69 68 67 66 67 71 75 78 81 82 81 82
27 29 25 21 23 25 24 28 35 33 32 42 55 63 69 64 49 48 65 69 54 49 54 49 38 39 43 41 39 41 42 43 45 41 36 35 36 34 32 33 34 34 36 40 40 34 26 21 21 23 27 31 31 29 27 27 33 41 46 46 45 44 45 50 57 59 59 61 65 68 68 67 65 65 69 72 72 69 67 67 70 74 77 79 80 80 82
24 25 25 25 27 28 30 35 34 30 36 52 64 68 66 56 43 50 70 73 59 53 55 47 37 37 40 39 38 39 39 40 40 36 33 36 39 37 35 38 42 42 40 37 34 28 21 20 27 40 51 56 55 47 37 31 34 41 48 51 50 48 48 52 56 57 57 62 66 65 63 63 65 67 72 76 76 71 67 67 70 73 73 74 76 77 79
21 24 27 27 26 27 32 36 31 27 33 44 48 50 54 52 47 56 70 69 58 53 52 45 38 37 38 37 37 36 34 35 36 35 35 37 36 32 33 41 47 46 39 32 27 26 25 26 33 44 55 60 58 51 44 42 45 50 52 52 52 53 54 54 56 57 58 60 60 60 62 64 65 66 69 71 71 69 69 70 72 72 70 69 73 77 78
25 25 26 27 28 28 30 30 27 25 29 32 35 41 47 46 46 57 68 65 54 47 42 36 35 37 37 37 37 35 33 34 36 35 36 36 34 33 39 45 43 38 32 29 27 29 31 33 38 45 52 53 49 44 43 45 50 54 55 55 57 61 63 62 62 63 62 61 61 62 62 60 59 60 64 67 71 78 81 75 67 64 67 68 71 74 75
29 27 28 34 39 37 33 29 29 29 31 34 37 42 43 43 49 62 68 59 46 40 36 34 35 37 37 36 36 35 34 35 37 39 40 38 35 37 43 43 36 30 31 34 35 36 37 39 44 51 56 55 49 46 47 50 52 53 54 56 59 64 68 69 68 66 66 67 66 61 57 57 60 66 72 76 82 89 88 74 60 59 66 68 68 71 73
Wind_Speed
16 17 18 18 19 19 19 17 16 15 10 5 4 4 2 3 3 6 14 8 2 4 8 5 5 6 3 2 3 2 2 2 2 3 3 2 1 1 2 2 3 4 3 3 3 3 4 5 4 4 4 5 4 2 3 5 5 3 3 2 1 1 2 5 4 2 6 7 5 1 2 2 4 6 6 5 4 3 4 5 5 5 5 4 6 8 2
17 18 18 19 19 19 18 16 15 14 9 6 5 4 2 3 3 5 15 10 0 2 6 5 5 6 4 5 5 2 4 5 3 4 6 3 2 2 3 2 3 4 3 3 4 3 3 4 4 3 3 3 1 1 3 5 5 4 4 3 3 2 2 5 5 2 2 3 1 1 3 2 3 5 5 5 4 4 4 3 3 3 4 6 7 9 3
17 18 19 19 19 18 18 16 14 13 9 5 4 3 2 2 3 4 14 17 9 4 3 5 7 6 7 7 5 3 4 3 3 4 5 4 3 3 2 1 2 3 1 2 6 6 4 3 2 2 3 2 1 1 1 3 4 4 3 3 4 3 3 5 5 5 5 4 3 2 2 4 2 3 5 6 5 5 3 3 4 3 6 8 7 7 6
17 18 18 18 19 18 18 16 13 11 9 6 6 4 1 0 3 2 6 11 9 5 3 4 7 6 6 5 4 3 4 2 0 2 3 3 4 4 3 1 1 2 2 3 6 8 7 5 3 1 2 0 1 0 1 3 4 3 1 3 3 2 1 4 4 4 4 5 5 4 4 5 3 3 5 5 4 5 4 3 4 5 7 7 4 7 12
17 17 18 18 19 19 18 16 14 11 7 6 7 5 2 1 2 2 1 4 5 5 5 4 3 3 2 3 3 3 3 3 2 1 2 3 3 3 4 4 3 3 2 2 4 5 6 6 4 1 2 2 1 2 2 2 1 1 2 1 2 3 1 4 3 4 5 6 5 3 3 4 3 1 2 3 3 4 4 3 3 4 6 7 8 13 15
16 16 17 18 19 19 19 16 14 12 8 5 4 3 4 2 2 1 2 1 3 4 4 4 5 5 3 3 2 3 4 3 2 2 1 1 2 2 3 6 7 4 2 1 2 3 4 4 2 1 1 3 3 2 3 1 1 1 1 2 1 3 2 3 0 5 6 5 3 3 3 2 1 1 3 2 2 2 2 2 3 3 4 9 14 17 16
16 16 17 18 18 18 18 16 13 11 9 7 6 4 3 2 4 1 2 1 3 3 2 2 6 7 5 4 3 4 6 5 3 2 1 1 3 5 3 4 7 4 2 2 2 1 1 2 1 1 0 2 3 1 1 1 3 3 3 3 1 2 1 2 1 6 6 4 3 3 3 3 3 3 3 2 2 3 3 5 6 6 9 12 15 17 17
16 16 16 17 17 16 16 15 12 9 8 9 8 5 2 1 3 2 3 5 4 2 2 0 5 6 4 3 3 3 5 5 3 2 4 2 3 4 4 4 5 5 4 3 4 3 3 3 2 1 2 1 1 2 2 2 4 5 4 2 1 1 1 2 2 4 3 5 4 3 4 4 4 4 4 3 4 4 4 5 6 7 10 12 13 15 13
17 17 16 16 16 16 15 14 12 9 7 8 7 4 4 5 3 3 5 5 3 2 1 0 3 4 4 3 2 2 5 5 4 3 4 4 3 3 3 3 3 5 7 7 6 5 5 5 4 1 1 2 2 2 2 3 5 5 3 2 3 3 2 1 2 5 1 4 4 4 3 2 4 5 6 5 4 4 4 5 6 7 11 13 12 11 7
17 16 16 16 16 16 15 13 11 9 7 7 5 4 4 6 4 1 3 4 2 2 1 1 1 3 3 3 2 2 4 3 1 2 2 3 4 3 2 2 1 3 6 6 5 4 4 4 3 2 1 3 3 3 3 2 3 4 2 1 1 2 3 1 2 5 4 3 5 2 2 2 2 3 4 4 4 5 6 7 8 9 10 10 9 7 7
17 16 16 17 17 16 15 13 11 9 7 7 7 6 5 4 3 1 2 5 3 2 1 2 3 2 1 2 2 2 3 3 1 2 2 2 3 3 3 4 1 2 4 3 2 2 3 3 2 2 3 4 4 3 2 3 3 3 2 1 1 1 4 2 2 3 5 8 9 3 2 2 2 4 4 3 2 5 8 10 12 12 10 9 9 10 11
17 17 17 17 18 17 16 14 12 11 10 8 11 12 7 5 4 1 2 5 3 2 2 3 3 2 2 2 4 4 5 3 3 4 3 4 3 4 3 3 2 2 3 3 3 4 4 3 2 2 3 3 2 1 1 2 3 2 2 2 1 2 3 2 1 3 5 7 7 4 3 2 3 5 5 2 2 5 10 14 15 14 12 11 11 11 10
17 18 17 17 19 19 18 17 15 14 12 7 10 14 11 7 5 2 3 6 4 2 3 3 2 2 2 3 5 6 5 4 3 5 5 5 4 4 3 3 3 3 3 4 3 2 3 2 3 4 5 5 4 4 4 1 2 2 1 1 2 3 3 2 1 2 4 5 5 5 3 2 4 5 4 3 4 5 8 11 10 8 8 8 8 9 9
17 18 17 17 18 19 19 19 19 18 14 7 10 15 12 8 6 2 2 5 4 2 2 3 3 2 3 4 6 6 4 4 4 5 5 4 5 6 5 3 3 2 1 2 2 3 3 2 3 3 4 4 3 3 4 4 1 0 1 2 2 3 2 2 2 2 2 5 5 6 6 2 3 3 3 2 2 3 5 8 10 7 4 4 6 8 9
17 17 17 16 17 19 19 19 19 19 14 9 12 14 11 7 7 5 3 5 6 3 1 1 3 4 4 4 2 3 4 3 3 3 3 2 4 5 4 3 3 1 1 2 2 2 2 2 3 2 1 2 2 1 2 3 3 2 1 2 3 2 2 3 3 1 1 4 5 5 6 4 1 4 5 5 2 2 2 6 8 3 3 3 5 8 10
16 17 17 17 17 17 19 19 18 17 13 10 12 14 13 11 11 11 7 4 6 4 1 2 2 2 3 2 1 1 1 2 3 3 2 3 3 3 3 3 2 1 2 2 2 2 2 2 2 3 2 1 2 3 3 2 1 3 2 1 1 1 2 2 3 2 1 4 5 4 5 3 3 6 7 5 2 0 2 4 4 1 4 3 6 8 10
16 17 17 18 18 17 17 17 17 16 14 11 11 14 15 13 12 12 9 4 4 4 2 2 1 1 2 3 1 1 0 1 1 1 1 3 3 3 3 2 1 1 2 3 2 2 2 1 1 3 1 1 1 4 3 4 4 1 2 2 2 1 2 2 3 3 1 2 4 4 4 1 5 8 6 3 2 3 3 6 3 2 2 4 6 8 9
16 17 18 18 19 18 17 15 13 13 14 14 14 16 16 12 9 10 8 5 5 4 2 1 1 1 1 1 1 1 1 0 1 1 1 3 2 2 3 2 2 2 2 3 2 2 3 1 2 3 1 2 1 3 2 2 3 2 2 3 2 1 1 1 2 3 3 2 4 5 4 1 6 7 6 5 4 3 4 5 3 1 4 5 5 8 9
15 17 18 19 20 20 19 17 14 11 9 9 10 13 15 13 10 11 9 5 4 4 4 2 2 0 1 0 1 2 0 1 1 1 2 2 2 2 2 1 1 1 2 2 2 2 2 1 1 1 2 1 1 2 3 2 2 2 2 3 2 1 1 2 2 3 3 3 4 6 4 1 6 7 6 5 4 3 5 3 3 5 8 7 7 8 8
15 16 18 20 21 22 21 21 19 15 12 8 8 13 15 11 6 7 10 9 6 5 5 3 3 2 2 2 1 1 1 1 1 2 1 1 2 2 2 1 1 2 3 3 2 1 1 2 1 1 3 2 1 1 3 2 2 1 1 1 1 0 2 3 2 2 2 3 4 4 4 1 7 6 4 5 5 5 5 4 6 8 8 8 8 7 7
14 16 17 19 21 21 22 22 19 17 16 11 12 19 22 16 10 12 19 21 12 4 3 3 3 3 2 1 2 2 2 2 1 2 1 2 1 2 2 1 1 2 1 1 2 1 1 1 0 1 2 1 1 1 2 2 2 0 1 1 2 2 2 3 2 1 1 3 3 3 3 3 9 7 3 5 6 4 5 5 7 7 7 7 7 6 6
14 16 17 18 19 20 20 20 19 18 17 13 15 24 26 22 19 19 23 26 20 10 8 9 6 5 4 2 2 1 2 3 3 3 2 0 1 1 2 0 1 1 1 1 2 1 1 1 1 1 2 2 2 2 1 2 3 1 2 2 3 4 3 3 3 2 3 5 7 7 6 2 7 8 7 8 7 5 3 4 6 6 6 6 6 7 7
14 15 16 17 19 19 19 20 19 19 18 15 17 24 26 24 22 22 25 27 22 14 11 10 7 6 5 4 4 3 2 2 2 2 2 2 1 1 2 1 0 0 0 1 2 2 0 1 0 2 2 2 2 2 2 3 3 1 2 4 4 3 3 0 2 3 5 9 11 12 11 9 7 7 7 6 6 4 3 5 6 6 6 5 5 7 7
14 15 16 17 18 18 19 20 20 20 19 16 17 21 24 23 21 21 21 17 10 6 5 4 2 2 3 2 3 3 3 2 2 1 1 2 1 1 1 1 1 1 1 1 1 2 0 0 1 1 2 1 1 3 4 4 3 1 1 3 4 4 4 3 5 5 4 5 7 7 8 9 8 7 7 6 6 5 5 5 6 6 6 6 6 7 7
14 15 16 17 17 18 18 19 19 19 18 16 15 17 18 15 12 11 10 7 3 4 4 3 1 1 2 2 2 2 2 2 2 1 0 1 2 2 1 2 0 1 1 1 1 1 1 1 1 2 3 1 1 3 3 2 1 1 2 4 2 3 4 4 7 7 7 8 10 9 10 11 9 8 6 5 5 5 5 6 6 6 6 6 7 6 6
13 14 15 15 16 17 18 18 19 18 17 15 15 15 15 13 10 9 9 9 7 4 3 3 2 0 1 1 1 2 2 2 2 1 2 2 1 2 2 1 0 0 2 1 1 1 1 1 1 3 3 1 1 2 2 2 1 1 4 3 2 4 3 4 5 6 9 11 11 9 9 10 8 7 6 5 4 4 5 6 6 6 6 7 7 7 7
11 11 12 13 13 15 16 17 19 19 18 17 17 17 16 13 10 7 5 4 2 2 3 3 3 2 2 1 1 2 2 2 2 1 2 2 1 1 2 2 1 1 1 0 0 0 1 2 2 2 1 0 1 1 1 2 2 3 5 3 4 4 5 4 3 5 7 7 4 2 5 8 6 4 4 5 4 4 5 6 6 7 7 7 7 8 8
9 9 9 9 10 11 12 14 14 14 14 14 15 17 19 19 15 11 6 1 1 3 3 3 4 3 3 2 1 2 2 2 2 2 2 1 0 0 2 3 3 1 1 2 1 1 2 2 1 1 1 0 1 2 1 0 1 4 6 6 7 7 7 6 4 6 8 9 6 1 3 8 8 3 2 4 4 4 6 7 7 7 7 7 7 8 8
6 5 5 4 4 4 4 4 5 5 6 7 7 9 14 17 17 15 12 9 10 9 6 4 4 3 1 1 1 2 3 3 3 3 2 1 1 1 2 3 2 1 1 2 3 3 2 1 0 0 1 0 2 1 1 2 3 5 6 7 10 9 9 9 9 10 10 10 6 1 4 8 8 2 2 4 4 4 6 6 6 6 7 7 8 8 8
9 10 9 6 3 1 1 3 4 6 6 6 4 2 4 8 11 11 10 9 9 8 4 2 3 2 1 1 2 2 3 4 4 3 3 3 2 2 2 2 2 1 2 2 2 2 2 0 1 0 0 0 2 2 2 2 3 5 6 7 10 10 9 9 9 10 9 6 1 1 4 7 5 2 3 5 5 5 5 6 6 6 7 7 8 9 9
14 15 15 13 12 10 7 6 5 5 4 4 3 1 0 2 5 7 6 5 5 5 3 3 2 2 1 1 3 2 2 3 4 4 4 4 3 2 3 3 2 2 3 2 1 1 2 1 1 1 1 0 1 2 2 2 3 6 7 7 8 9 9 8 8 9 8 4 1 1 5 6 4 4 5 5 6 6 5 6 6 6 7 8 8 9 9
13 14 14 14 15 15 14 13 12 10 10 9 6 4 3 1 2 4 5 4 4 3 2 2 2 1 1 1 3 2 2 2 3 3 4 4 3 3 4 4 3 2 2 2 2 1 1 1 0 1 2 1 1 2 3 3 6 9 10 7 6 7 7 7 6 6 5 2 1 4 8 7 6 5 3 2 5 6 6 7 6 6 6 7 9 9 9
10 11 11 12 12 12 11 12 11 10 13 14 12 10 8 3 1 2 3 2 4 3 2 2 1 0 0 1 3 1 2 1 2 2 2 3 2 1 2 3 3 3 3 2 2 1 0 0 1 1 1 1 1 2 3 6 11 14 12 7 4 4 4 4 3 4 4 4 5 7 9 6 2 2 1 1 4 6 6 6 6 6 6 8 9 10 10
7 7 7 7 7 7 6 6 5 6 8 9 10 11 11 9 7 4 2 1 3 4 3 2 0 0 0 1 2 1 2 1 1 1 0 1 1 2 2 2 2 2 2 2 1 1 1 1 1 1 2 2 1 2 5 10 14 14 11 8 5 3 2 3 4 5 6 5 6 8 7 3 1 1 3 4 5 6 6 6 7 7 7 8 9 10 10
4 3 3 4 5 6 5 4 3 3 3 4 4 5 7 8 10 9 6 3 1 1 2 2 1 1 1 2 1 1 2 2 1 0 1 0 1 1 2 1 2 2 1 0 1 2 1 1 1 2 2 2 2 4 7 10 12 10 8 7 5 4 3 5 6 6 5 5 5 6 5 3 3 5 5 5 6 6 7 7 8 8 8 8 8 9 10
2 0 2 4 7 7 5 3 3 2 1 2 2 2 2 3 5 6 7 7 5 3 1 0 1 1 1 3 2 2 2 2 1 1 1 1 0 0 1 2 2 1 1 0 2 2 1 1 1 2 2 2 5 7 7 8 9 8 7 6 5 6 6 6 4 3 3 3 3 4 4 4 6 6 6 6 6 6 7 8 8 9 9 9 8 9 10
3 3 4 6 7 6 3 1 2 1 1 1 0 2 3 2 2 2 4 6 7 7 3 0 0 2 1 2 1 2 2 2 0 0 1 1 1 0 0 2 2 0 0 2 2 0 1 0 1 3 4 5 7 8 7 8 8 7 7 6 4 5 6 4 3 4 3 3 4 5 5 6 7 6 6 6 6 6 7 8 8 9 9 9 8 9 10
6 6 7 6 4 2 1 1 0 0 0 1 1 2 3 3 1 1 2 3 4 5 3 1 1 2 0 2 1 2 2 2 1 1 0 0 1 0 1 1 1 1 2 2 1 1 1 2 2 4 6 7 9 11 11 10 8 7 7 6 4 5 5 4 5 6 5 5 6 6 6 6 7 7 6 6 7 7 7 8 8 9 9 10 10 9 9
6 6 5 3 1 1 1 1 1 1 2 2 2 1 2 2 1 0 1 1 1 1 1 1 1 2 1 2 0 2 3 2 2 2 0 0 1 1 1 1 1 1 3 2 1 1 2 2 2 3 5 6 7 8 7 7 6 6 7 7 6 6 5 5 7 9 8 7 6 4 3 5 6 6 5 5 5 6 7 8 8 8 9 10 9 8 8
4 3 2 2 1 1 1 1 1 2 2 1 1 1 1 1 1 1 1 1 0 0 1 1 1 1 1 2 1 1 3 2 2 2 1 1 0 1 1 1 1 1 3 2 1 1 2 2 1 3 4 5 5 3 2 3 4 4 5 6 7 7 7 7 8 9 9 7 4 3 3 4 5 5 6 6 5 6 6 7 8 8 9 9 9 9 10
2 1 2 2 1 1 0 1 1 1 0 0 1 1 1 1 1 0 1 1 1 0 1 1 1 1 1 1 2 1 2 3 1 1 1 1 0 1 2 1 1 1 3 2 1 1 2 3 2 3 5 6 4 1 2 3 5 4 4 6 7 7 8 8 9 9 8 6 5 4 5 6 6 6 6 6 6 7 7 7 8 8 9 9 10 10 10
3 3 3 2 1 1 0 1 2 2 1 0 1 1 0 1 0 0 1 1 1 0 1 1 1 0 1 1 1 1 1 2 1 1 2 1 0 1 1 1 1 2 2 0 1 0 2 3 4 5 6 5 3 2 2 4 4 4 5 6 7 8 8 9 9 9 9 8 7 6 6 7 9 10 9 9 9 10 10 10 11 12 13 13 13 12 11
3 3 2 1 1 1 1 1 1 1 1 1 1 1 2 1 0 0 1 0 0 0 1 1 1 0 1 2 1 1 1 0 0 1 1 1 0 0 1 1 1 1 1 1 0 2 3 3 5 6 5 2 1 2 3 4 4 4 5 6 7 8 8 9 8 8 9 10 10 9 8 9 11 12 12 12 13 14 15 16 16 16 16 15 15 15 15
1 1 1 1 1 1 1 1 0 1 0 0 0 0 2 2 0 1 1 1 1 2 1 1 1 1 1 1 1 1 1 1 0 1 1 0 0 0 1 1 1 0 0 1 2 3 3 4 6 7 5 4 2 3 5 4 4 4 5 6 7 8 8 8 8 8 8 10 12 12 12 12 12 13 13 14 15 16 18 18 18 17 17 17 17 18 18
1 1 2 2 1 1 1 1 1 0 1 1 2 2 2 2 2 2 1 0 1 1 1 1 1 1 0 1 1 0 0 0 1 1 0 1 1 1 1 1 1 1 1 2 3 3 4 5 6 5 5 5 5 4 4 4 3 3 3 4 6 9 9 9 9 9 8 9 12 13 13 13 13 14 15 16 17 17 18 19 18 17 17 17 19 21 20
0 0 2 1 2 2 0 0 1 1 1 2 2 3 3 2 2 1 0 1 1 1 1 2 1 1 1 1 1 1 0 0 1 1 0 1 2 1 0 1 1 1 1 2 3 4 5 5 4 3 3 4 4 3 2 2 2 2 3 4 5 8 10 10 10 10 10 11 13 13 13 13 14 14 15 16 17 18 19 19 19 18 18 18 20 22 22
1 1 1 1 1 1 0 1 1 1 1 1 1 0 0 1 1 0 0 1 0 2 3 2 1 0 0 1 1 1 0 0 1 1 1 1 2 1 1 0 2 2 2 3 5 5 5 4 3 2 2 3 3 3 3 2 3 4 5 6 6 6 8 10 10 10 12 14 14 14 14 15 15 15 14 15 17 18 18 19 19 19 19 21 23 23 22
0 0 0 1 1 2 1 1 1 1 0 1 1 1 1 1 1 0 1 0 1 2 3 2 1 1 1 0 0 1 0 0 1 1 1 1 2 1 0 1 3 2 3 4 5 5 4 4 2 2 2 2 3 3 3 3 4 5 5 6 6 7 8 9 10 12 15 16 16 16 16 16 15 15 15 15 17 18 19 18 18 18 19 21 22 24 24
1 1 1 0 1 2 1 1 2 2 0 1 1 0 1 1 1 1 2 2 1 1 1 1 0 1 0 0 0 0 1 1 1 1 1 1 2 1 1 2 4 3 4 4 4 5 5 3 2 2 4 4 4 4 4 4 5 5 6 7 9 9 9 10 13 16 17 17 17 18 18 16 15 15 15 15 16 18 18 17 17 17 18 19 20 23 24
1 1 1 1 2 2 1 0 1 2 1 1 1 1 2 1 1 2 4 4 2 2 2 0 0 0 1 0 0 1 1 1 1 1 1 3 2 2 2 3 4 4 4 3 3 4 4 3 2 3 6 6 5 5 5 5 6 7 10 12 14 13 13 14 15 16 17 18 18 18 17 16 16 16 16 16 16 16 16 17 18 18 19 19 19 21 23
0 1 1 1 1 1 1 0 2 3 3 1 0 1 2 1 1 3 7 6 3 2 2 1 1 1 1 1 1 1 0 1 1 2 3 3 2 3 3 5 5 4 4 3 3 3 3 2 2 4 5 6 5 6 6 8 10 11 13 14 15 15 15 15 16 16 17 17 17 17 17 17 17 16 15 15 14 13 15 19 20 19 18 18 19 19 21
1 1 1 1 0 0 1 1 2 3 2 1 1 0 1 0 1 5 9 7 3 2 2 2 2 1 1 1 1 1 1 1 2 3 3 3 3 4 5 5 5 5 5 4 3 2 3 3 4 5 6 6 7 9 10 11 12 14 15 15 15 15 16 17 17 18 17 16 16 17 18 17 15 14 13 12 12 12 15 19 20 17 15 16 18 18 19
Wind_Direction
16 14 13 11 9 7 5 6 10 14 27 70 76 74 52 38 78 357 350 350 292 48 77 69 42 75 95 78 74 35 34 64 40 29 17 357 12 44 54 28 24 38 19 359 29 31 27 32 37 60 71 48 33 22 332 319 300 300 340 20 6 312 312 315 308 92 108 125 123 115 197 163 81 56 33 14 12 354 300 306 326 312 314 337 316 310 328
16 14 13 12 10 8 6 7 11 16 36 91 91 83 83 60 87 19 10 16 218 92 79 100 89 89 118 105 84 64 51 48 43 35 28 22 3 27 63 43 27 36 8 16 41 25 21 46 45 44 55 64 64 340 332 333 334 356 10 357 344 348 352 334 326 355 85 145 155 195 214 266 21 51 41 30 5 319 285 273 273 275 2 2 309 300 338
16 15 13 12 11 9 8 9 14 19 34 88 99 100 144 106 89 36 22 34 57 73 64 111 119 114 113 95 73 86 84 44 4 26 37 33 8 21 71 30 16 29 1 66 58 32 24 48 53 32 49 97 155 261 328 322 340 20 20 318 318 333 350 355 349 351 358 352 344 351 319 313 349 53 28 18 4 334 305 271 280 315 356 339 301 303 332
18 15 14 13 12 11 10 11 17 24 38 79 91 81 179 113 65 60 28 37 53 64 44 80 116 123 114 93 55 54 89 110 266 5 41 42 21 37 58 355 290 20 21 94 69 41 42 66 85 60 12 43 149 86 255 298 341 28 8 286 290 281 1 22 358 322 330 334 336 1 345 312 314 18 4 2 5 340 310 294 318 332 318 309 327 336 319
19 16 14 13 12 12 12 12 17 25 41 79 85 61 19 42 58 30 49 65 67 71 51 43 91 113 97 88 63 47 83 118 146 41 42 41 16 37 59 35 15 17 17 89 80 54 64 71 66 51 304 292 251 205 224 303 13 147 196 273 279 270 331 49 357 288 284 301 314 339 335 308 311 339 316 332 357 343 333 339 334 320 303 300 328 329 312
19 17 15 13 12 13 12 12 17 25 36 64 86 49 5 41 87 356 318 42 62 66 48 35 69 76 71 91 85 78 86 78 63 63 88 80 2 357 69 42 25 22 332 313 98 89 84 72 31 280 312 309 287 209 197 246 14 185 256 31 11 293 327 90 243 282 277 272 276 283 280 277 265 242 260 294 333 320 312 287 260 267 287 297 311 315 307
19 19 18 15 13 13 13 14 18 26 42 61 77 69 31 75 104 50 335 44 68 57 359 16 78 74 70 84 68 67 82 78 62 24 338 118 27 5 50 39 16 24 337 296 131 104 49 91 184 248 293 311 320 36 150 241 0 5 355 24 62 274 328 113 228 282 267 226 217 246 244 222 203 218 246 269 270 252 244 259 263 256 264 284 302 305 301
22 20 20 18 16 14 13 17 23 32 54 69 65 54 31 101 114 101 94 89 72 43 326 11 93 75 55 73 60 51 74 83 95 33 3 58 42 13 73 74 24 34 41 53 92 56 16 62 107 194 192 253 336 27 27 326 343 2 10 355 325 318 33 122 224 274 228 180 191 225 230 234 233 224 221 244 267 257 236 260 283 275 273 289 301 300 298
23 21 22 20 19 19 17 20 28 36 62 79 67 48 55 73 87 122 115 92 30 4 16 52 101 78 51 70 88 85 84 84 99 77 27 29 27 21 80 98 54 55 61 69 78 53 32 50 57 97 142 17 22 34 23 335 318 350 19 339 333 344 341 153 271 305 317 162 216 236 215 243 257 239 231 236 262 271 259 271 285 285 290 300 302 300 308
23 22 23 22 21 23 23 24 32 43 70 88 82 83 96 90 76 66 105 91 26 350 47 16 91 77 40 50 68 75 98 110 123 107 89 54 35 18 344 311 356 85 77 70 58 25 26 47 45 58 93 70 69 66 53 28 341 354 359 305 12 353 314 340 332 316 343 351 313 289 171 223 265 227 220 221 245 279 282 279 282 284 292 298 295 299 316
24 22 24 25 25 26 28 31 38 48 69 98 117 131 146 136 112 76 102 98 61 339 14 58 71 89 51 52 75 82 112 135 338 1 120 105 35 7 311 296 313 92 77 51 38 33 48 61 60 71 98 101 94 94 88 71 44 15 334 300 113 288 298 344 4 305 321 332 324 293 214 290 6 108 139 180 243 288 290 286 288 289 286 283 281 290 305
24 24 25 27 28 30 34 37 43 56 68 101 133 138 142 138 121 101 102 104 82 6 71 64 35 60 84 68 76 79 86 87 20 17 77 100 52 24 346 306 321 78 93 94 110 126 120 108 112 143 164 155 136 174 168 71 64 55 354 316 286 292 305 335 343 289 301 316 319 307 302 355 81 128 137 157 241 272 280 279 280 279 277 279 282 287 298
25 26 28 30 31 34 38 41 47 59 62 84 130 133 132 126 107 72 83 101 88 31 76 87 22 31 93 96 92 87 80 76 50 38 58 73 66 50 30 354 12 69 121 136 137 173 188 184 209 230 224 215 218 227 220 174 71 55 34 341 304 317 320 309 308 310 307 315 328 322 323 83 131 168 181 202 233 275 297 292 286 280 275 276 280 285 295
28 28 30 35 36 37 41 44 49 55 56 74 119 121 121 116 100 89 99 100 95 42 58 118 125 103 101 107 110 111 104 95 74 56 49 45 49 52 41 23 27 38 126 166 207 242 253 253 252 244 222 216 224 218 199 181 162 7 24 27 343 316 309 313 339 17 337 315 306 291 280 245 159 173 177 176 230 322 327 304 294 291 268 252 273 288 296
31 32 34 39 41 41 44 47 50 55 60 82 109 111 110 106 99 95 91 106 120 133 333 69 115 126 119 109 119 133 130 132 109 83 72 52 52 57 52 40 30 352 292 276 260 255 276 292 283 279 252 250 285 281 202 180 176 195 261 12 18 353 338 330 324 350 316 301 304 300 290 290 130 135 130 110 78 351 294 278 285 283 153 185 266 291 297
36 38 40 43 45 45 47 51 54 58 62 77 97 98 89 88 100 98 87 96 118 115 59 41 52 110 120 100 324 287 136 146 140 129 128 110 90 83 79 66 39 319 268 273 283 279 267 267 286 299 313 330 303 288 287 293 214 178 197 201 117 14 317 283 284 304 307 297 307 308 296 314 92 133 143 126 97 217 228 266 281 139 147 223 268 291 299
43 45 47 48 48 47 48 51 56 60 62 68 88 92 81 80 99 100 83 73 90 84 74 94 82 268 135 123 168 258 5 89 131 195 121 103 113 117 112 123 160 213 261 267 262 255 260 261 276 279 268 112 296 288 293 307 303 237 209 217 183 178 320 288 283 301 284 272 297 292 283 333 110 133 139 124 128 167 243 294 318 117 214 265 276 290 298
49 51 53 53 52 51 49 48 50 59 66 70 79 85 79 76 94 102 92 85 96 100 104 134 189 295 354 73 78 33 18 324 256 271 91 107 130 134 131 161 179 162 224 262 270 264 262 254 270 288 292 124 267 298 305 311 305 292 284 282 251 233 317 305 291 295 266 249 284 283 276 88 118 133 131 130 152 186 271 307 352 355 296 299 293 292 298
54 56 58 58 57 55 51 48 45 47 57 66 72 73 71 73 89 102 100 79 68 101 128 170 228 289 52 175 86 60 27 275 288 260 163 151 129 108 126 219 249 183 197 228 257 270 268 248 209 289 281 194 182 299 304 286 279 287 303 294 269 242 269 249 258 288 274 261 280 280 277 130 131 137 135 152 191 284 312 323 343 326 314 312 299 293 300
59 60 62 62 60 57 53 49 46 46 53 68 90 81 69 65 80 107 115 112 96 93 111 154 207 165 161 238 319 36 199 212 261 267 260 98 129 163 194 218 199 191 198 220 239 235 261 271 159 182 267 273 96 304 286 252 239 282 337 273 230 136 303 282 276 286 278 267 269 289 312 136 153 154 148 176 220 298 330 326 321 320 315 307 296 293 301
61 63 64 64 63 60 58 53 48 50 56 69 93 87 73 65 77 110 120 117 110 97 116 155 182 154 163 249 338 351 331 352 341 302 13 71 148 224 277 32 145 198 209 236 248 216 243 285 106 192 264 286 140 258 289 274 248 154 64 262 221 179 234 294 308 170 256 281 275 305 345 144 169 188 241 240 247 299 331 314 307 310 310 306 296 291 298
64 65 65 66 65 63 62 60 56 57 61 66 85 89 85 83 91 107 110 98 84 80 110 126 125 109 100 87 70 39 328 345 341 324 337 74 168 242 300 299 173 227 315 278 262 259 193 209 210 248 258 249 225 237 286 284 277 92 121 228 220 183 196 304 306 217 230 273 279 289 307 256 192 209 251 269 275 294 301 285 291 299 303 302 292 289 297
69 69 67 67 67 64 64 65 62 62 63 61 72 89 99 100 98 102 102 92 84 87 104 116 118 102 81 57 43 34 25 22 349 324 305 276 182 182 248 260 158 188 235 265 290 316 232 200 294 301 272 262 263 256 229 235 250 212 188 221 221 192 171 175 275 249 260 269 263 262 274 279 257 234 239 258 273 274 253 257 275 290 295 293 286 285 290
75 75 72 70 69 67 66 67 66 65 64 60 66 88 104 107 101 99 98 96 98 103 102 114 126 82 60 26 3 0 12 15 345 315 262 258 255 201 190 90 89 229 186 185 303 331 336 155 46 299 266 234 222 266 262 247 232 195 213 232 218 187 175 201 241 251 266 271 257 249 261 277 279 263 250 247 249 246 243 253 270 285 287 282 276 277 279
79 78 77 74 73 71 69 69 68 67 67 65 68 84 97 100 99 99 95 94 118 119 103 106 98 24 347 336 343 332 335 337 336 8 355 273 278 297 340 49 18 296 44 80 233 240 234 228 192 242 250 215 199 252 273 279 235 179 235 257 232 163 169 221 243 238 240 261 273 278 278 278 274 267 260 253 248 245 244 253 265 273 273 267 261 259 265
80 79 80 79 78 77 76 74 73 70 69 69 70 75 81 81 80 89 97 97 97 96 98 104 102 68 300 338 304 277 304 327 331 6 352 311 226 249 309 346 18 64 63 50 292 276 268 260 248 246 244 226 248 262 284 308 301 250 250 261 93 113 162 228 250 248 254 266 274 280 282 278 265 247 239 240 250 258 258 259 258 254 257 260 252 243 246
78 78 79 80 81 82 81 80 79 76 72 70 69 68 71 69 66 77 102 111 90 75 103 114 114 147 174 175 288 295 316 323 313 334 337 320 196 208 272 276 248 183 160 227 309 338 246 241 242 248 255 12 288 260 295 320 309 270 255 221 135 151 214 223 234 258 267 279 291 293 285 289 289 265 231 223 228 247 258 261 258 253 255 257 254 252 253
77 76 81 84 86 89 88 86 84 79 70 64 62 63 63 61 57 58 62 71 114 89 89 107 122 143 168 186 274 312 317 302 292 300 309 309 327 218 252 262 267 260 246 261 269 242 241 250 252 171 126 32 248 217 206 311 243 255 253 213 180 205 224 206 213 257 275 291 302 273 247 283 301 310 198 194 203 228 252 263 265 263 262 255 251 260 264
63 63 73 85 95 100 94 81 68 50 31 24 31 50 57 55 54 56 64 85 103 101 93 110 126 130 155 175 216 301 310 299 278 269 278 299 307 229 230 249 267 275 277 281 279 271 260 257 315 78 113 256 262 229 212 229 230 250 248 201 188 211 225 219 235 261 277 292 302 254 240 281 296 295 178 197 211 226 252 268 268 262 261 252 246 255 263
70 69 69 67 64 46 324 309 313 314 321 335 341 1 56 51 45 48 60 83 98 101 103 118 124 126 124 149 179 241 301 295 267 250 246 246 239 221 219 234 246 243 248 252 261 284 296 247 190 230 80 261 268 260 249 248 254 266 253 205 195 214 227 227 240 257 269 285 318 179 262 284 293 262 227 222 213 218 245 263 263 258 258 252 244 250 258
80 75 71 69 67 65 57 41 23 359 343 341 330 299 68 40 24 28 40 60 82 97 105 91 94 135 170 185 194 210 264 267 242 232 231 233 230 213 217 233 225 212 241 263 260 270 291 262 188 173 143 161 272 269 258 255 265 268 255 220 204 216 224 224 233 247 260 278 41 261 272 269 248 250 255 221 197 205 231 253 254 244 242 244 245 249 253
83 77 73 69 67 65 62 60 57 56 61 67 70 73 79 70 1 16 29 51 81 98 98 81 99 189 235 166 171 201 269 249 225 227 220 208 205 201 206 218 224 206 224 276 275 234 264 304 208 177 160 155 249 268 262 245 247 256 258 243 216 216 224 229 234 240 245 238 187 268 277 268 238 237 251 184 183 204 228 250 252 233 222 233 245 246 244
89 84 77 69 64 60 59 60 58 60 68 74 76 75 72 64 7 2 13 50 74 68 49 68 106 228 339 133 152 172 317 261 221 239 212 173 175 237 205 197 217 213 196 214 244 224 148 230 219 185 154 156 229 265 261 241 240 250 261 261 230 210 220 236 242 243 240 214 202 243 274 289 270 205 220 200 209 221 230 240 237 224 221 232 241 242 240
104 93 73 58 48 35 32 39 41 51 67 72 72 69 65 59 53 45 35 93 84 69 61 63 65 271 338 182 167 105 13 314 266 285 259 125 101 288 246 192 206 214 196 203 250 243 192 203 242 219 171 160 204 253 258 252 250 255 262 256 229 192 209 256 249 242 236 219 213 235 260 294 39 209 240 245 236 225 219 218 217 220 230 239 242 244 245
123 94 53 28 13 2 356 357 356 13 52 65 69 69 62 57 54 50 48 54 55 54 64 41 345 338 352 289 249 93 33 316 290 327 327 40 80 301 288 262 232 216 190 234 265 237 199 157 273 240 179 155 203 227 239 253 259 260 256 245 218 181 202 245 247 236 224 213 219 235 242 239 244 251 256 258 245 221 210 215 218 221 235 249 252 250 249
178 86 354 345 341 336 331 337 350 357 50 82 81 61 34 32 39 40 43 47 45 53 97 122 317 36 344 305 317 34 3 302 213 174 259 261 158 33 306 266 249 195 95 243 245 234 172 82 267 246 181 181 228 232 231 248 261 264 263 255 219 194 214 237 227 187 175 178 204 226 225 228 244 254 259 263 252 226 217 227 226 223 235 250 255 253 252
244 279 304 320 328 324 302 306 3 32 88 121 89 10 2 350 339 10 29 35 39 47 59 210 186 78 11 294 326 13 341 315 329 149 241 255 305 353 237 259 278 15 167 234 234 200 87 93 258 253 228 225 244 254 254 256 259 261 267 269 234 205 220 225 166 156 176 198 214 224 226 233 244 247 248 254 249 229 224 233 233 230 235 244 249 252 253
270 290 303 311 321 323 273 248 243 199 10 338 309 340 6 0 353 46 36 7 17 37 37 347 89 99 223 266 324 19 354 326 320 324 262 228 313 308 201 237 315 342 272 254 140 93 239 217 227 259 258 256 263 266 262 257 254 249 250 254 235 212 213 192 167 177 209 236 243 237 227 234 248 248 243 248 250 240 237 242 242 240 241 245 248 251 250
278 295 303 301 291 284 285 268 226 263 313 329 319 331 12 1 334 6 7 334 341 29 6 341 110 132 231 263 354 50 32 323 277 278 23 64 327 330 287 273 22 343 283 264 120 112 259 233 203 259 270 266 261 256 247 246 250 250 247 241 226 209 200 192 191 201 219 243 264 265 241 246 262 267 260 259 259 252 246 246 245 244 246 247 245 241 239
276 290 293 284 283 278 258 255 276 288 301 330 351 356 9 16 17 342 322 319 165 128 1 11 102 116 332 302 282 57 48 11 300 297 327 343 4 340 302 297 40 325 277 264 98 58 277 261 240 256 264 263 256 237 204 227 247 248 243 236 223 208 200 204 211 217 227 241 253 240 223 235 250 260 263 263 262 260 255 249 245 245 245 244 242 239 241
265 293 305 298 282 239 185 9 358 349 287 274 19 21 11 2 32 23 289 274 254 195 83 123 193 195 153 217 255 276 51 52 37 308 284 285 76 289 275 285 19 295 265 257 77 55 269 269 259 248 255 262 258 197 166 236 251 245 232 228 223 212 207 212 217 216 218 226 228 218 221 228 231 237 244 245 245 252 257 255 252 250 245 243 247 249 249
276 282 292 294 268 234 73 22 20 29 42 354 6 27 345 295 272 204 235 261 310 335 148 160 219 287 128 150 247 302 43 61 68 239 258 284 11 306 287 321 352 269 255 266 61 243 250 261 255 246 251 258 251 211 220 241 246 243 230 219 215 210 207 210 215 213 210 215 221 219 220 227 233 238 241 241 243 249 253 254 256 259 259 258 259 260 257
273 271 271 267 289 333 336 330 12 50 56 40 33 1 313 320 40 195 270 267 152 229 200 144 130 129 134 134 115 84 96 76 293 236 257 292 327 302 296 289 248 245 260 31 266 234 235 243 246 250 261 269 210 216 243 245 244 250 240 221 216 217 212 208 213 216 214 219 226 229 230 236 243 247 249 248 248 251 255 258 260 262 264 265 264 263 262
227 257 334 330 317 338 329 295 47 79 97 29 97 193 294 313 111 196 259 258 168 188 175 130 161 220 212 87 66 109 131 135 185 206 233 278 290 235 253 253 243 266 324 252 240 241 249 251 249 257 275 290 269 247 247 239 234 244 242 224 215 215 214 212 214 217 218 223 228 233 237 242 247 250 251 251 250 251 256 262 265 264 264 263 262 263 265
252 297 15 16 333 327 348 319 330 25 190 208 172 170 215 266 245 217 245 3 120 154 126 121 164 208 145 80 96 136 110 135 199 215 262 298 256 230 233 273 319 320 282 263 259 258 257 255 253 256 266 270 262 251 245 238 231 234 241 232 218 211 211 213 214 212 214 221 225 229 234 240 244 247 251 255 257 257 258 261 263 263 263 261 261 263 266
247 54 64 50 297 303 20 193 289 271 189 203 201 187 202 245 263 240 23 22 126 143 121 118 155 185 171 127 135 115 59 238 221 184 104 264 256 245 239 336 296 266 251 258 256 246 246 256 268 279 278 272 264 252 241 243 237 219 226 240 230 212 208 213 216 215 217 222 224 227 231 237 241 245 251 258 262 262 261 262 263 261 260 259 261 265 268
100 72 76 92 293 302 239 207 250 267 210 217 254 304 38 341 332 43 64 343 80 112 105 89 78 105 122 131 156 149 104 279 245 203 163 221 256 279 55 258 247 230 229 245 247 245 254 267 274 277 277 271 264 256 249 241 227 219 230 248 250 226 211 211 215 219 223 224 225 226 230 236 242 246 249 255 261 263 265 268 268 264 261 261 263 267 269
157 50 113 190 233 240 227 243 294 295 191 112 17 15 37 319 286 193 143 138 104 118 125 133 144 144 126 124 229 219 115 119 233 215 155 206 278 297 315 267 259 236 220 230 240 252 268 279 285 295 297 284 264 258 257 250 243 237 236 243 246 235 219 213 217 225 226 223 221 224 229 235 242 245 247 252 258 263 267 271 271 269 266 265 265 267 267
150 123 115 197 232 225 191 10 322 295 232 115 87 136 195 229 257 145 132 140 141 116 106 79 279 198 162 73 40 201 187 191 208 184 133 220 242 223 203 258 267 252 227 222 232 253 270 286 315 309 291 279 265 255 252 253 256 252 244 245 248 244 233 227 230 234 231 225 223 228 233 236 239 243 245 248 256 264 270 273 272 270 269 268 267 267 268
134 154 201 240 247 239 192 132 288 279 252 152 167 192 190 221 236 166 153 154 140 112 119 138 242 154 135 42 308 253 232 197 161 156 207 222 211 179 198 237 243 236 226 223 231 251 267 281 309 292 281 274 265 256 251 255 263 263 260 261 262 258 250 244 241 239 235 230 229 231 233 234 236 240 243 248 256 265 271 272 270 271 273 273 271 269 269
199 262 253 241 251 259 224 163 288 283 278 290 327 168 170 194 230 161 156 154 147 150 173 184 112 92 110 253 253 234 200 150 161 214 242 231 186 168 208 232 237 243 255 260 261 270 280 281 271 276 279 277 270 265 263 265 267 268 268 268 267 262 255 250 244 239 237 234 232 231 233 236 240 243 246 252 258 264 269 272 275 277 277 277 274 272 272
183 246 264 252 106 281 261 268 283 274 268 315 12 124 185 283 77 145 155 163 176 191 170 141 115 132 208 253 234 133 131 189 223 242 248 228 197 195 214 232 249 268 282 284 276 272 279 277 268 264 264 265 272 277 279 277 273 270 269 269 267 262 254 248 243 240 236 231 229 231 235 239 242 242 242 245 248 249 258 270 279 284 282 281 282 281 279